sat.trackr.live / text

‹ back to catalog

STARLINK-36045

NORAD 66811 · 2025-278W

PAYLOAD ACTIVE UNKNOWN

§ Identity

Operator
Country
US
Launch date
2025-12-01
Launch site
AFETR
Launch vehicle
Mass (kg)
RCS (m²)

Purposes: comms

External: N2YO · Heavens-Above · Gunter

§ Orbital elements

Epoch: 2026-09-19T22:06:39.367872Z

Period
94.27 min
Inclination
43.0021°
Eccentricity
0.0001424
Mean motion
15.27596025 rev/d
Perigee alt
482.0 km
Apogee alt
484.0 km
Semi-major
6,861.1 km
B*
5.2363e-4
RAAN
97.5071°
Arg perigee
270.7297°
Mean anomaly
89.3392°
Rev number
4,491

§ Raw data

STARLINK-360451 66811U 25278W   26262.92128898  .00014182  00000+0  52363-3 0  99982 66811  43.0021  97.5071 0001424 270.7297  89.3392 15.27596025 44912

JSON: /api/v1/satellites/66811 · /tle

For live sub-satellite position, see the globe view (requires WebGL).

§ Visibility from observer

Set your observer location to see the next 7 days of passes ≥ 10°. The values pass through the URL so the page stays shareable.

No JS? Fill the form by hand. The geolocation button needs JavaScript.